EJU79CA LEIB-LSGG

Flight info

Callsign EJU79CA
Flight time 1h 33m
Altitude 36000
Route KABRE DCT ELTAN DCT MHN DCT MEROS DCT LAPIT DCT CHELY DCT LUMAS DCT NEVIX DCT ODIXU DCT MAXIR DCT LUSOL DCT BODRU/N0392F280 DCT OKTET DCT IRMAR DCT KINES
Aircraft A320/M-SDE3FGHIRWY/LB1

Departure

Time 2026-05-01 13:39
Airport Ibiza Airport (LEIB)

Arrival

Time 2026-05-01 15:12
Airport Geneva International Airport (LSGG)
Time Latitude Longitude Altitude Speed Heading
2026-05-01 13:01 38.87537 1.36861 9 ft 0 kts 332°
2026-05-01 13:32 38.87541 1.36865 8 ft 0 kts 25°
2026-05-01 13:33 38.87464 1.36862 8 ft 7 kts 240°
2026-05-01 13:33 38.87405 1.36800 8 ft 7 kts 171°
2026-05-01 13:34 38.87283 1.36846 11 ft 8 kts 216°
2026-05-01 13:34 38.87219 1.36701 9 ft 8 kts 242°
2026-05-01 13:35 38.87163 1.36562 8 ft 12 kts 243°
2026-05-01 13:35 38.87120 1.36457 8 ft 13 kts 242°
2026-05-01 13:35 38.87046 1.36274 8 ft 10 kts 242°
2026-05-01 13:36 38.87016 1.36200 8 ft 9 kts 242°
2026-05-01 13:36 38.86988 1.36138 8 ft 7 kts 240°
2026-05-01 13:36 38.86931 1.36002 8 ft 16 kts 242°
2026-05-01 13:37 38.86881 1.35881 8 ft 15 kts 242°
2026-05-01 13:37 38.86818 1.35824 9 ft 9 kts 164°
2026-05-01 13:37 38.86761 1.35860 6 ft 10 kts 151°
2026-05-01 13:37 38.86722 1.35929 6 ft 9 kts 94°
2026-05-01 13:38 38.86784 1.36103 7 ft 35 kts 62°
2026-05-01 13:38 38.87017 1.36668 8 ft 104 kts 62°
2026-05-01 13:38 38.87445 1.37701 12 ft 156 kts 62°
2026-05-01 13:39 38.87965 1.38967 546 ft 160 kts 63°
2026-05-01 13:39 38.88408 1.40282 1224 ft 163 kts 74°
2026-05-01 13:39 38.88676 1.41791 1636 ft 184 kts 77°
2026-05-01 13:39 38.88967 1.43492 1976 ft 207 kts 77°
2026-05-01 13:40 38.89283 1.45325 2686 ft 212 kts 77°
2026-05-01 13:40 38.89606 1.47173 3502 ft 213 kts 77°
2026-05-01 13:40 38.89932 1.49040 4285 ft 216 kts 77°
2026-05-01 13:40 38.90270 1.50937 5063 ft 220 kts 77°
2026-05-01 13:41 38.90611 1.52866 5853 ft 223 kts 76°
2026-05-01 13:41 38.90794 1.54856 6587 ft 230 kts 92°
2026-05-01 13:41 38.90622 1.57005 6955 ft 253 kts 97°
2026-05-01 13:41 38.90397 1.59336 7412 ft 269 kts 96°
2026-05-01 13:42 38.90157 1.61763 8109 ft 278 kts 97°
2026-05-01 13:42 38.89912 1.64254 8899 ft 284 kts 97°
2026-05-01 13:42 38.89472 1.66747 9648 ft 290 kts 110°
2026-05-01 13:42 38.88648 1.69131 10398 ft 295 kts 115°
2026-05-01 13:43 38.87746 1.71605 10729 ft 317 kts 115°
2026-05-01 13:43 38.86798 1.74215 11102 ft 334 kts 115°
2026-05-01 13:43 38.85806 1.76942 11766 ft 340 kts 115°
2026-05-01 13:43 38.84798 1.79707 12483 ft 344 kts 115°
2026-05-01 13:44 38.83777 1.82504 13177 ft 348 kts 115°
2026-05-01 13:44 38.82735 1.85371 13876 ft 352 kts 115°
2026-05-01 13:44 38.81777 1.88209 14501 ft 353 kts 109°
2026-05-01 13:44 38.81259 1.91314 15089 ft 359 kts 95°
2026-05-01 13:45 38.81312 1.94525 15694 ft 363 kts 82°
2026-05-01 13:45 38.81949 1.97672 16287 ft 367 kts 68°
2026-05-01 13:45 38.82955 2.00689 16860 ft 370 kts 66°
2026-05-01 13:45 38.83996 2.03738 17457 ft 376 kts 66°
2026-05-01 13:46 38.85046 2.06801 18022 ft 378 kts 66°
2026-05-01 13:46 38.86095 2.09905 18587 ft 381 kts 66°
2026-05-01 13:46 38.87141 2.13043 19136 ft 384 kts 67°
2026-05-01 13:46 38.88191 2.16214 19656 ft 388 kts 67°
2026-05-01 13:47 38.89251 2.19415 20175 ft 391 kts 67°
2026-05-01 13:47 38.90321 2.22642 20667 ft 395 kts 67°
2026-05-01 13:47 38.91404 2.25898 21147 ft 398 kts 66°
2026-05-01 13:47 38.92496 2.29177 21647 ft 401 kts 66°
2026-05-01 13:48 38.93596 2.32481 22105 ft 404 kts 66°
2026-05-01 13:48 38.94705 2.35814 22558 ft 407 kts 66°
2026-05-01 13:48 38.95820 2.39172 22990 ft 410 kts 66°
2026-05-01 13:48 38.96942 2.42557 23424 ft 413 kts 66°
2026-05-01 13:49 38.98069 2.45963 23844 ft 416 kts 66°
2026-05-01 13:49 38.99203 2.49395 24262 ft 418 kts 67°
2026-05-01 13:49 39.00343 2.52849 24662 ft 421 kts 66°
2026-05-01 13:49 39.01492 2.56331 25047 ft 424 kts 67°
2026-05-01 13:50 39.02645 2.59832 25418 ft 427 kts 67°
2026-05-01 13:50 39.03807 2.63362 25773 ft 430 kts 67°
2026-05-01 13:50 39.04974 2.66912 26122 ft 433 kts 67°
2026-05-01 13:50 39.06147 2.70493 26475 ft 436 kts 67°
2026-05-01 13:51 39.07323 2.74090 26817 ft 438 kts 67°
2026-05-01 13:51 39.08508 2.77718 27148 ft 441 kts 67°
2026-05-01 13:51 39.09696 2.81367 27470 ft 443 kts 67°
2026-05-01 13:51 39.10892 2.85036 27798 ft 446 kts 67°
2026-05-01 13:52 39.12096 2.88728 28112 ft 448 kts 67°
2026-05-01 13:52 39.13309 2.92442 28418 ft 451 kts 67°
2026-05-01 13:52 39.14532 2.96171 28734 ft 453 kts 66°
2026-05-01 13:52 39.15854 2.99869 29026 ft 455 kts 64°
2026-05-01 13:53 39.17281 3.03523 29316 ft 458 kts 62°
2026-05-01 13:53 39.20293 3.10802 29872 ft 463 kts 61°
2026-05-01 13:53 39.21808 3.14471 30139 ft 465 kts 62°
2026-05-01 13:54 39.23310 3.18179 30403 ft 467 kts 62°
2026-05-01 13:54 39.24775 3.21860 30661 ft 469 kts 63°
2026-05-01 13:54 39.26253 3.25622 30904 ft 471 kts 63°
2026-05-01 13:54 39.27726 3.29401 31137 ft 473 kts 63°
2026-05-01 13:55 39.29206 3.33202 31389 ft 475 kts 63°
2026-05-01 13:55 39.30692 3.37006 31703 ft 474 kts 63°
2026-05-01 13:55 39.32180 3.40801 32045 ft 473 kts 63°
2026-05-01 13:55 39.33667 3.44591 32373 ft 473 kts 63°
2026-05-01 13:56 39.35149 3.48376 32693 ft 472 kts 63°
2026-05-01 13:56 39.36629 3.52158 33005 ft 472 kts 63°
2026-05-01 13:56 39.38110 3.55944 33305 ft 471 kts 63°
2026-05-01 13:56 39.39585 3.59725 33599 ft 471 kts 63°
2026-05-01 13:57 39.41058 3.63506 33899 ft 471 kts 63°
2026-05-01 13:57 39.42528 3.67290 34192 ft 471 kts 63°
2026-05-01 13:57 39.43995 3.71069 34498 ft 470 kts 63°
2026-05-01 13:57 39.45460 3.74844 34790 ft 469 kts 63°
2026-05-01 13:58 39.46920 3.78613 35097 ft 468 kts 63°
2026-05-01 13:58 39.48375 3.82378 35375 ft 467 kts 63°
2026-05-01 13:58 39.49826 3.86138 35638 ft 467 kts 63°
2026-05-01 13:58 39.51273 3.89890 35906 ft 465 kts 63°
2026-05-01 13:59 39.52718 3.93637 36123 ft 465 kts 63°
2026-05-01 13:59 39.54160 3.97380 36206 ft 462 kts 63°
2026-05-01 13:59 39.57015 4.04804 36210 ft 459 kts 63°
2026-05-01 14:00 39.60492 4.11677 36221 ft 455 kts 44°
2026-05-01 14:00 39.62851 4.14390 36221 ft 452 kts 33°
2026-05-01 14:00 39.65526 4.16491 36220 ft 448 kts 22°
2026-05-01 14:01 39.71432 4.18713 36220 ft 441 kts
2026-05-01 14:01 39.77503 4.19898 36219 ft 441 kts
2026-05-01 14:02 39.83534 4.21075 36217 ft 441 kts
2026-05-01 14:02 39.89597 4.22310 36217 ft 441 kts
2026-05-01 14:03 39.95645 4.23735 36216 ft 442 kts
2026-05-01 14:03 40.01690 4.25212 36217 ft 442 kts
2026-05-01 14:04 40.07747 4.26664 36222 ft 442 kts
2026-05-01 14:04 40.12814 4.27850 36222 ft 442 kts
2026-05-01 14:05 40.19886 4.29509 36223 ft 442 kts
2026-05-01 14:05 40.25937 4.30940 36228 ft 442 kts
2026-05-01 14:06 40.31947 4.32360 36228 ft 441 kts
2026-05-01 14:06 40.37993 4.33796 36230 ft 441 kts
2026-05-01 14:07 40.44029 4.35235 36228 ft 440 kts
2026-05-01 14:08 40.53069 4.37382 36231 ft 440 kts
2026-05-01 14:08 40.59094 4.38814 36233 ft 440 kts
2026-05-01 14:09 40.65117 4.40258 36237 ft 440 kts
2026-05-01 14:09 40.71140 4.41710 36241 ft 440 kts
2026-05-01 14:10 40.77157 4.43159 36240 ft 439 kts
2026-05-01 14:10 40.83166 4.44605 36240 ft 439 kts
2026-05-01 14:11 40.89170 4.46048 36245 ft 438 kts
2026-05-01 14:11 40.98166 4.48226 36250 ft 438 kts
2026-05-01 14:12 41.04154 4.49692 36249 ft 437 kts
2026-05-01 14:12 41.10141 4.51153 36246 ft 437 kts
2026-05-01 14:13 41.15110 4.52357 36243 ft 437 kts
2026-05-01 14:13 41.22095 4.54046 36241 ft 436 kts
2026-05-01 14:14 41.28071 4.55504 36241 ft 436 kts
2026-05-01 14:14 41.34038 4.56968 36241 ft 436 kts
2026-05-01 14:15 41.39999 4.58437 36239 ft 436 kts
2026-05-01 14:15 41.45928 4.59897 36239 ft 436 kts
2026-05-01 14:16 41.51888 4.61365 36239 ft 436 kts
2026-05-01 14:16 41.57855 4.62832 36236 ft 436 kts
2026-05-01 14:17 41.63820 4.64302 36239 ft 436 kts
2026-05-01 14:17 41.69781 4.65784 36241 ft 436 kts
2026-05-01 14:18 41.75631 4.67970 36241 ft 441 kts 20°
2026-05-01 14:18 41.80311 4.70673 36242 ft 441 kts 20°
2026-05-01 14:19 41.86899 4.74463 36247 ft 441 kts 20°
2026-05-01 14:19 41.92534 4.77710 36253 ft 441 kts 20°
2026-05-01 14:20 42.00977 4.82583 36266 ft 440 kts 20°
2026-05-01 14:21 42.06594 4.85843 36276 ft 439 kts 20°
2026-05-01 14:21 42.12203 4.89102 36276 ft 438 kts 20°
2026-05-01 14:22 42.20586 4.93979 36276 ft 437 kts 20°
2026-05-01 14:22 42.25221 4.96681 36276 ft 436 kts 20°
2026-05-01 14:23 42.30787 4.99939 36274 ft 436 kts 20°
2026-05-01 14:23 42.36352 5.03201 36273 ft 435 kts 20°
2026-05-01 14:24 42.41891 5.06516 36273 ft 437 kts 25°
2026-05-01 14:24 42.47206 5.10506 36277 ft 437 kts 26°
2026-05-01 14:25 42.52521 5.14507 36279 ft 437 kts 26°
2026-05-01 14:25 42.57827 5.18512 36282 ft 436 kts 26°
2026-05-01 14:26 42.65744 5.24498 36284 ft 436 kts 26°
2026-05-01 14:27 42.71035 5.28503 36284 ft 435 kts 26°
2026-05-01 14:27 42.76320 5.32518 36284 ft 435 kts 26°
2026-05-01 14:28 42.84231 5.38548 36282 ft 434 kts 26°
2026-05-01 14:28 42.89498 5.42559 36282 ft 434 kts 26°
2026-05-01 14:29 42.94759 5.46584 36281 ft 434 kts 26°
2026-05-01 14:30 43.05275 5.54652 36275 ft 433 kts 26°
2026-05-01 14:31 43.12451 5.62135 36280 ft 439 kts 45°
2026-05-01 14:31 43.16502 5.68400 36285 ft 440 kts 45°
2026-05-01 14:32 43.20571 5.74652 36293 ft 439 kts 45°
2026-05-01 14:32 43.24631 5.80903 36288 ft 439 kts 45°
2026-05-01 14:33 43.28683 5.87156 36294 ft 438 kts 45°
2026-05-01 14:33 43.32728 5.93425 36296 ft 438 kts 45°
2026-05-01 14:34 43.36902 5.99462 36298 ft 433 kts 35°
2026-05-01 14:34 43.42063 6.03473 36313 ft 423 kts 15°
2026-05-01 14:35 43.47762 6.04885 36308 ft 414 kts
2026-05-01 14:35 43.53511 6.05454 36297 ft 414 kts
2026-05-01 14:36 43.59268 6.06031 36290 ft 415 kts
2026-05-01 14:36 43.65025 6.06614 36285 ft 415 kts
2026-05-01 14:37 43.70786 6.07204 36284 ft 415 kts
2026-05-01 14:37 43.76533 6.08094 36283 ft 418 kts 11°
2026-05-01 14:38 43.81961 6.11110 36286 ft 423 kts 23°
2026-05-01 14:38 43.87239 6.14721 36286 ft 423 kts 23°
2026-05-01 14:39 43.92526 6.18327 36289 ft 424 kts 23°
2026-05-01 14:39 43.97816 6.21940 36293 ft 424 kts 23°
2026-05-01 14:40 44.03105 6.25554 36299 ft 424 kts 23°
2026-05-01 14:40 44.08393 6.29175 36311 ft 424 kts 23°
2026-05-01 14:41 44.13675 6.32808 36301 ft 424 kts 23°
2026-05-01 14:41 44.18955 6.36457 36300 ft 423 kts 23°
2026-05-01 14:42 44.24233 6.40102 36311 ft 423 kts 23°
2026-05-01 14:42 44.29512 6.43746 36322 ft 424 kts 23°
2026-05-01 14:43 44.34794 6.47404 36327 ft 424 kts 23°
2026-05-01 14:43 44.40074 6.51067 36332 ft 424 kts 24°
2026-05-01 14:44 44.45347 6.54745 36329 ft 423 kts 24°
2026-05-01 14:44 44.53223 6.60237 36334 ft 423 kts 24°
2026-05-01 14:45 44.61132 6.65757 36333 ft 423 kts 24°
2026-05-01 14:46 44.66402 6.69447 36342 ft 423 kts 24°
2026-05-01 14:46 44.74335 6.75034 36346 ft 423 kts 24°
2026-05-01 14:47 44.79715 6.78103 36343 ft 419 kts 11°
2026-05-01 14:48 44.88359 6.78491 36338 ft 415 kts 356°
2026-05-01 14:48 44.97029 6.77922 36289 ft 416 kts 356°
2026-05-01 14:49 45.02791 6.77535 35274 ft 412 kts 356°
2026-05-01 14:49 45.08473 6.77166 34286 ft 406 kts 356°
2026-05-01 14:50 45.12232 6.76920 33622 ft 402 kts 356°
2026-05-01 14:50 45.19606 6.76425 32341 ft 395 kts 357°
2026-05-01 14:51 45.22347 6.76241 31883 ft 393 kts 357°
2026-05-01 14:51 45.27785 6.75883 31283 ft 391 kts 357°
2026-05-01 14:52 45.33199 6.75461 30780 ft 388 kts 353°
2026-05-01 14:52 45.35861 6.74802 30535 ft 392 kts 349°
2026-05-01 14:52 45.41268 6.73330 30035 ft 397 kts 349°
2026-05-01 14:53 45.43977 6.72588 29719 ft 396 kts 349°
2026-05-01 14:53 45.46674 6.71850 29285 ft 393 kts 349°
2026-05-01 14:53 45.49357 6.71119 28848 ft 391 kts 349°
2026-05-01 14:53 45.52021 6.70395 28414 ft 389 kts 349°
2026-05-01 14:54 45.54677 6.69677 27994 ft 387 kts 350°
2026-05-01 14:54 45.57317 6.68984 27564 ft 385 kts 350°
2026-05-01 14:54 45.59946 6.68309 27124 ft 383 kts 351°
2026-05-01 14:54 45.62564 6.67641 26695 ft 381 kts 351°
2026-05-01 14:55 45.65161 6.66977 26251 ft 379 kts 351°
2026-05-01 14:55 45.67714 6.66323 25813 ft 376 kts 351°
2026-05-01 14:55 45.70286 6.65658 25344 ft 374 kts 351°
2026-05-01 14:55 45.72840 6.64996 24887 ft 372 kts 351°
2026-05-01 14:56 45.75384 6.64338 24433 ft 370 kts 351°
2026-05-01 14:56 45.77912 6.63670 23937 ft 369 kts 351°
2026-05-01 14:56 45.80423 6.62996 23487 ft 366 kts 350°
2026-05-01 14:56 45.82919 6.62319 23035 ft 364 kts 350°
2026-05-01 14:57 45.85404 6.61640 22582 ft 363 kts 350°
2026-05-01 14:57 45.90333 6.60292 21699 ft 359 kts 350°
2026-05-01 14:57 45.92777 6.59624 21266 ft 357 kts 351°
2026-05-01 14:58 45.95205 6.58960 20838 ft 355 kts 351°
2026-05-01 14:58 45.97624 6.58295 20411 ft 353 kts 351°
2026-05-01 14:58 46.00026 6.57639 19997 ft 350 kts 351°
2026-05-01 14:58 46.02391 6.56835 19562 ft 350 kts 341°
2026-05-01 14:59 46.04578 6.55325 19146 ft 349 kts 328°
2026-05-01 14:59 46.06457 6.53136 18725 ft 348 kts 314°
2026-05-01 14:59 46.07949 6.50394 18299 ft 348 kts 304°
2026-05-01 14:59 46.09304 6.47514 17860 ft 347 kts 304°
2026-05-01 15:00 46.12008 6.41782 17060 ft 343 kts 304°
2026-05-01 15:00 46.13344 6.38947 16659 ft 342 kts 304°
2026-05-01 15:00 46.14681 6.36113 16250 ft 341 kts 304°
2026-05-01 15:01 46.16012 6.33284 15836 ft 341 kts 304°
2026-05-01 15:01 46.17275 6.30444 15391 ft 341 kts 296°
2026-05-01 15:01 46.17927 6.27182 14948 ft 340 kts 274°
2026-05-01 15:01 46.17682 6.23827 14593 ft 335 kts 251°
2026-05-01 15:02 46.16640 6.20923 14422 ft 319 kts 232°
2026-05-01 15:02 46.16165 6.20096 14247 ft 315 kts 227°
2026-05-01 15:02 46.13698 6.16360 13355 ft 303 kts 225°
2026-05-01 15:02 46.12243 6.14225 12959 ft 294 kts 225°
2026-05-01 15:03 46.10794 6.12109 12554 ft 299 kts 225°
2026-05-01 15:03 46.09337 6.09982 12106 ft 295 kts 225°
2026-05-01 15:03 46.07909 6.07910 11667 ft 288 kts 224°
2026-05-01 15:03 46.06502 6.05884 11222 ft 285 kts 224°
2026-05-01 15:04 46.05101 6.03875 10773 ft 284 kts 224°
2026-05-01 15:04 46.03713 6.01884 10339 ft 278 kts 225°
2026-05-01 15:04 46.02383 5.99973 10101 ft 264 kts 225°
2026-05-01 15:04 46.01097 5.98128 9858 ft 260 kts 225°
2026-05-01 15:05 45.99820 5.96295 9521 ft 260 kts 225°
2026-05-01 15:05 45.98541 5.94461 9180 ft 259 kts 225°
2026-05-01 15:05 45.97312 5.92576 8825 ft 257 kts 237°
2026-05-01 15:05 45.96731 5.90201 8552 ft 251 kts 269°
2026-05-01 15:06 45.97078 5.87785 8435 ft 249 kts 298°
2026-05-01 15:06 45.98156 5.85794 7918 ft 258 kts 314°
2026-05-01 15:06 45.99415 5.83956 7485 ft 260 kts 315°
2026-05-01 15:06 46.00702 5.82145 7212 ft 256 kts 319°
2026-05-01 15:07 46.02242 5.81043 7049 ft 246 kts 354°
2026-05-01 15:07 46.03900 5.81482 6700 ft 248 kts 31°
2026-05-01 15:07 46.05092 5.83248 6332 ft 249 kts 56°
2026-05-01 15:07 46.06149 5.85163 5991 ft 247 kts 46°
2026-05-01 15:08 46.07351 5.86910 5655 ft 244 kts 44°
2026-05-01 15:08 46.08552 5.88626 5340 ft 243 kts 45°
2026-05-01 15:08 46.09739 5.90347 5017 ft 241 kts 45°
2026-05-01 15:08 46.10900 5.92037 4693 ft 232 kts 45°
2026-05-01 15:09 46.12014 5.93659 4396 ft 223 kts 45°
2026-05-01 15:09 46.13085 5.95222 4110 ft 215 kts 45°
2026-05-01 15:09 46.14122 5.96734 3830 ft 208 kts 45°
2026-05-01 15:09 46.15128 5.98201 3560 ft 204 kts 45°
2026-05-01 15:10 46.16115 5.99642 3299 ft 199 kts 45°
2026-05-01 15:10 46.17933 6.02296 2786 ft 175 kts 45°
2026-05-01 15:10 46.18746 6.03484 2581 ft 158 kts 45°
2026-05-01 15:11 46.19491 6.04574 2369 ft 148 kts 46°
2026-05-01 15:11 46.20673 6.06306 2036 ft 143 kts 46°
2026-05-01 15:11 46.21359 6.07307 1850 ft 142 kts 46°
2026-05-01 15:12 46.22048 6.08320 1665 ft 141 kts 46°
2026-05-01 15:12 46.23393 6.10290 1398 ft 117 kts 45°
2026-05-01 15:12 46.23798 6.10883 1379 ft 40 kts 45°
2026-05-01 15:13 46.23714 6.11079 1382 ft 5 kts 202°
2026-05-01 15:14 46.23632 6.10972 1385 ft 13 kts 225°
2026-05-01 15:14 46.23571 6.10883 1391 ft 11 kts 226°
2026-05-01 15:14 46.23421 6.10664 1393 ft 16 kts 225°
2026-05-01 15:15 46.23266 6.10446 1400 ft 18 kts 225°
2026-05-01 15:15 46.23098 6.10188 1404 ft 17 kts 225°
2026-05-01 15:16 46.22951 6.09999 1402 ft 9 kts 172°
2026-05-01 15:16 46.22875 6.10099 1397 ft 2 kts 135°
2026-05-01 15:17 46.22871 6.10103 1396 ft 0 kts 135°
2026-05-01 15:18 46.22872 6.10103 1393 ft 0 kts 135°
2026-05-01 15:23 46.22872 6.10102 1401 ft 0 kts 135°